This is the latest recevied weather packets stored in our database for station/object W4TJP. If no packets are shown the sender has not sent any weather packets the latest 10 day(s).
| Time | Temp. | Humidity | Pressure | Rain* | Wind** | Luminosity | Snow |
|---|---|---|---|---|---|---|---|
| 1777823118 | 13.33° C | 54% | 1020.9 hPa | 0 mm | - | 341 W/m² | - |
| 1777822815 | 13.89° C | 59% | 1020.9 hPa | 0 mm | - | 862 W/m² | - |
| 1777822514 | 12.78° C | 59% | 1020.8 hPa | 0 mm | - | 790 W/m² | - |
| 1777822211 | 12.78° C | 56% | 1021 hPa | 0 mm | - | 754 W/m² | - |
| 1777821908 | 12.78° C | 56% | 1021.3 hPa | 0 mm | - | 761 W/m² | - |
| 1777821606 | 12.78° C | 57% | 1021 hPa | 0 mm | - | 785 W/m² | - |
| 1777821304 | 12.22° C | 57% | 1021.3 hPa | 0 mm | - | 774 W/m² | - |
| 1777821000 | 12.78° C | 57% | 1021.3 hPa | 0 mm | - | 734 W/m² | - |
| 1777820697 | 12.78° C | 60% | 1021.1 hPa | 0 mm | - | 790 W/m² | - |
| 1777820392 | 12.22° C | 64% | 1020.9 hPa | 0 mm | - | 770 W/m² | - |
| 1777820090 | 12.78° C | 69% | 1020.8 hPa | 0 mm | - | 732 W/m² | - |
| 1777819787 | 12.22° C | 59% | 1021 hPa | 0 mm | - | 704 W/m² | - |
| 1777819485 | 12.22° C | 60% | 1021.1 hPa | 0 mm | - | 661 W/m² | - |
| 1777819183 | 12.22° C | 61% | 1021 hPa | 0 mm | - | 648 W/m² | - |
| 1777818879 | 12.22° C | 67% | 1021 hPa | 0 mm | - | 641 W/m² | - |
| 1777818575 | 12.78° C | 66% | 1020.9 hPa | 0 mm | - | 592 W/m² | - |
| 1777818273 | 12.22° C | 64% | 1020.9 hPa | 0 mm | - | 557 W/m² | - |
| 1777817969 | 11.67° C | 67% | 1021 hPa | 0 mm | - | 553 W/m² | - |
| 1777817667 | 11.11° C | 71% | 1020.8 hPa | 0 mm | - | 551 W/m² | - |
| 1777817363 | 11.11° C | 74% | 1021 hPa | 0 mm | - | 530 W/m² | - |
| 1777817060 | 11.67° C | 73% | 1021 hPa | 0 mm | - | 516 W/m² | - |
| 1777816756 | 11.11° C | 77% | 1021.1 hPa | 0 mm | - | 491 W/m² | - |
| 1777816454 | 11.11° C | 80% | 1020.8 hPa | 0 mm | - | 474 W/m² | - |
| 1777816151 | 11.11° C | 77% | 1020.8 hPa | 0 mm | - | 467 W/m² | - |
| 1777815849 | 10° C | 83% | 1020.9 hPa | 0 mm | - | 440 W/m² | - |
* Rain latest hour (hover to see other rain measurements)
** Current wind speed in m/s (hover to see current wind gust speed)